Location: Brede
(50.9167°N, 0.6000°E)
Time: 20:11:00
(UTC+00:00)

Vanguard 1 Rocket - Pass Details

Date: 03 December 2020
Orbit: 655 x 4221 km, 34.3° (Epoch: 17 January)

Event Time Altitude Azimuth Distance (km) Brightness Sun altitude
Exits shadow 23:55:11 20° 103° (ESE) 5,970 11.3 -61.3°
Drops below altitude 10° 23:59:54 10° 95° (E) 6,479 11.7 -61.3°
Sets 00:04:38 0° 88° (E) 7,108 12.0 -61.2°
